Location: Rancho Del Sol Observatory
(38.7214°N, 120.6350°W)
Time: 14:08:48
(UTC-08:00)

A-11 Canister half - Pass Details

Date: 27 January 2020
Orbit: 1517 x 1683 km, 47.2° (Epoch: 19 February)

Event Time Altitude Azimuth Distance (km) Brightness Sun altitude
Exits shadow 06:10:42 15° 290° (WNW) 3,315 10.1 -12.3°
Maximum altitude 06:18:06 46° 224° (SW) 1,959 9.4 -10.9°
Drops below altitude 10° 06:26:53 10° 155° (SSE) 3,733 11.7 -9.3°
Sets 06:30:09 0° 149° (SSE) 4,735 12.4 -8.6°
